{"data":{"norad_id":48948,"epoch":"2026-05-25T02:27:37.867968Z","epoch_age_seconds":62100,"freshness":"FRESH","line1":"1 48948U 21059BX  26145.10252162  .00039903  00000+0  36850-3 0  9995","line2":"2 48948  97.6812 345.3082 0005844  65.2539 294.9329 15.67466887274238","mean_motion":15.67466887,"eccentricity":0.0005844,"inclination_deg":97.6812,"raan_deg":345.3082,"arg_perigee_deg":65.2539,"mean_anomaly_deg":294.9329,"bstar":0.0003685,"rev_number":27423,"period_min":91.867969393346,"perigee_km":362.21197152616,"apogee_km":370.09469806947,"semimajor_km":6744.2903347978,"source":"CELESTRAK","updated_at":"2026-05-25T13:38:24.927012Z"}}